#timestamp,LO_Frequency,Hit 
1497873615.4,286046930.9,N
1497873635.3,286046931.6,N
1497873655.1,286046932.2,N
1497873656.0,286046932.2,N
1497873675.8,286046929.7,N
1497873695.7,286046930.1,N
1497873715.5,286046930.5,N
1497873735.3,286046930.6,N
1497873755.2,286046928.4,N
1497873775.9,286046928.8,N
1497873795.7,286046926.1,N
1497873815.5,286046927.1,N
1497873835.4,286046925.0,N
1497873855.2,286046924.5,N
1497873875.0,286046927.5,N
1497873875.9,286046927.5,N
1497873895.8,286046924.7,N
1497873915.6,286046924.9,N
1497873935.4,286046925.1,N
1497873955.3,286046925.4,N
1497873975.1,286046923.5,N
1497873976.0,286046923.5,N
1497873995.8,286046923.2,N
1497874015.7,286046923.4,N
1497874035.5,286046923.5,N
1497874055.3,286046923.8,N
1497874075.2,286046921.5,Y
1497874095.9,286046998.2,N
1497874115.7,286046998.9,N
1497874135.6,286046999.3,N
1497874155.4,286046996.5,N
1497874175.2,286046996.8,N
1497874195.0,286046997.7,N
1497874195.9,286046997.7,N
1497874215.8,286046997.8,N
1497874235.6,286046997.9,N
1497874255.4,286046995.6,N
1497874275.3,286046996.1,N
1497874295.1,286046993.4,N
1497874296.0,286046993.4,N
1497874315.8,286046996.3,N
1497874335.7,286046993.8,N
1497874355.5,286046993.6,N
1497874375.3,286046994.1,N
1497874395.2,286046994.5,N
1497874415.9,286046994.7,N
1497874435.7,286046991.8,N
1497874455.5,286046991.9,N
1497874475.4,286046992.9,N
1497874495.2,286046992.8,N
1497874515.0,286046990.7,N
1497874515.9,286046990.7,N
1497874535.8,286046990.6,N
1497874555.6,286046993.2,N
1497874575.4,286046991.2,N
1497874595.3,286046988.5,N
1497874615.1,286046989.0,N
1497874616.0,286046989.0,N
1497874635.8,286046988.9,N
1497874655.7,286046988.7,N
1497874675.5,286046987.3,N
1497874695.3,286046987.4,N
1497874715.1,286046987.5,N
1497874735.9,286046987.6,N
1497874755.7,286046985.8,N
1497874775.5,286046986.1,N
1497874795.4,286046986.2,N
1497874815.2,286046983.7,N
1497874835.0,286046986.7,N
1497874835.9,286046986.7,N
1497874855.8,286046983.7,N
1497874875.6,286046984.3,N
1497874895.4,286046984.8,N
1497874915.3,286046985.0,N
1497874935.1,286046982.2,N
1497874936.0,286046982.2,N
1497874955.8,286046983.3,N
1497874975.6,286046983.3,N
1497874995.5,286046983.6,N
1497875015.3,286046983.6,N
1497875035.1,286046981.7,N
1497875055.9,286046981.2,N
1497875075.7,286046981.4,N
1497875095.5,286046981.7,N
1497875115.4,286046979.4,N
1497875135.2,286046979.1,N
1497875155.0,286046979.9,N
1497875155.9,286046979.9,N
1497875175.8,286046979.9,N
1497875195.6,286046980.1,N
1497875215.4,286046977.5,N
1497875235.2,286046977.6,N
1497875255.1,286046977.9,N
1497875256.0,286046977.9,N
1497875275.8,286046977.9,N
1497875295.6,286046978.4,N
1497875315.5,286046976.3,N
1497875335.3,286046978.4,N
1497875355.1,286046975.9,N
1497875375.9,286046976.3,N
1497875395.7,286046976.5,N
1497875415.5,286046976.4,N
1497875435.4,286046976.9,N
1497875455.2,286046974.6,N
1497875475.0,286046976.7,N
1497875475.9,286046976.7,N
1497875495.8,286046974.9,N
1497875515.6,286046975.1,N
1497875535.4,286046975.3,N
1497875555.2,286046972.9,N
1497875575.1,286046972.9,N
1497875576.0,286046972.9,N
1497875595.8,286046975.2,N
1497875615.6,286046973.3,N
1497875635.5,286046972.6,N
1497875655.3,286046973.9,N
1497875675.1,286046971.3,N
1497875695.9,286046971.0,N
1497875715.7,286046971.4,N
1497875735.5,286046971.7,N
1497875755.3,286046972.2,N
1497875775.2,286046971.9,N
1497875795.0,286046972.0,N
1497875795.9,286046972.0,N
1497875815.7,286046969.6,N
1497875835.6,286046970.3,N
1497875855.4,286046967.8,N
1497875875.2,286046968.3,N
1497875895.1,286046968.9,N
1497875896.0,286046968.9,N
1497875915.8,286046968.4,N
1497875935.6,286046968.3,N
1497875955.5,286046968.7,N
1497875975.3,286046968.7,N
1497875995.1,286046966.8,N
1497876015.9,286046965.2,N
1497876035.7,286046967.1,N
1497876055.5,286046967.2,N
1497876075.4,286046964.9,N
1497876095.2,286046964.5,N
1497876115.0,286046965.2,N
1497876115.9,286046965.2,N
1497876135.7,286046967.2,N
1497876155.6,286046966.9,N
1497876175.4,286046967.4,N
1497876195.2,286046964.5,N
1497876215.1,286046967.1,N
1497876216.0,286046967.1,N
1497876235.8,286046964.6,N
1497876255.6,286046965.8,N
1497876275.5,286046965.8,N
1497876295.3,286046963.1,N
1497876315.1,286046961.3,N
1497876335.9,286046961.7,N
1497876355.7,286046961.8,N
1497876375.5,286046962.3,N
1497876395.3,286046962.5,N
1497876415.2,286046960.1,N
1497876435.9,286046959.8,N
1497876455.7,286046962.5,N
1497876475.6,286046961.3,N
1497876495.4,286046961.5,N
1497876515.2,286046962.2,N
1497876535.1,286046961.7,N
1497876536.0,286046961.7,N
1497876555.8,286046961.8,N
1497876575.6,286046962.2,N
1497876595.5,286046962.0,N
1497876615.3,286046962.5,N
1497876635.1,286046962.4,N
1497876655.8,286046962.6,N
1497876675.7,286046960.2,N
1497876695.5,286046960.3,N
1497876715.3,286046960.2,N
1497876735.2,286046962.1,N
1497876755.9,286046960.3,N
1497876775.7,286046961.0,N
1497876795.6,286046958.2,N
1497876815.4,286046961.2,N
1497876835.2,286046958.7,N
1497876855.1,286046958.5,N
1497876856.0,286046958.5,N
1497876875.8,286046956.5,N
1497876895.6,286046957.3,N
1497876915.4,286046957.0,N
1497876935.3,286046956.7,N
1497876955.1,286046957.7,N
1497876975.8,286046957.3,N
1497876995.7,286046957.3,N
1497877015.5,286046955.0,N
1497877035.3,286046955.6,N
1497877055.2,286046957.9,N
1497877075.9,286046958.0,N
1497877095.7,286046956.0,N
1497877115.6,286046954.2,N
1497877135.4,286046953.9,N
1497877155.2,286046956.4,N
1497877175.0,286046954.1,N
1497877175.9,286046954.1,N
1497877195.8,286046956.2,N
